Terug naar catalogus

ONDOSAT-OWL-12

ActiefAmateurradioVLEO
NORAD 62403·PAYLOAD·🇲🇳 Mongolia
Deze satellietnaam is nog niet bevestigd door officiële bronnen.

Gelanceerd Dec 21, 2024 vanaf Vandenberg Space Force Base

Loading…

Volgende Passages (komende 24 uur)

TLE

VersSource: Space-Track

Epoch: Sep 14, 2026, 22:19 UTC

1 62403U 24247AC  26257.93011603  .00028109  00000-0  64152-3 0  9990
2 62403  45.0008 136.3140 0003663 170.1663 189.9298 15.42432800 97005

Volg ONDOSAT-OWL-12 in realtime met AllMySat

Download on the App Store